Location: Ottawa
(45.4170°N, 75.7000°W)
Time: 15:50:33
(UTC-04:00)

ISS - Visible Passes

Search period start: 25 September 2020 00:00
Search period end: 05 October 2020 00:00
Orbit: 419 x 420 km, 51.6° (Epoch: 26 September)

Date Brightness Start Highest point End Pass type
(mag) Time Alt. Az. Time Alt. Az. Time Alt. Az.
25 Sep -2.3 19:34:15 10° W 19:37:22 33° NNW 19:40:28 10° NE visible
25 Sep -1.8 21:11:46 10° NW 21:13:59 26° NNW 21:13:59 26° NNW visible
26 Sep -2.1 20:24:17 10° WNW 20:27:14 27° N 20:28:21 22° NE visible
26 Sep -0.2 22:01:14 10° NW 22:01:18 11° NW 22:01:18 11° NW visible
27 Sep -2.1 19:36:43 10° WNW 19:39:40 27° N 19:42:38 10° ENE visible
27 Sep -1.6 21:13:50 10° NW 21:15:40 26° NW 21:15:40 26° NW visible
28 Sep -2.6 20:26:26 10° NW 20:29:32 32° NNE 20:30:01 31° NNE visible
29 Sep -2.3 19:38:58 10° NW 19:41:58 29° N 19:44:23 14° ENE visible
29 Sep -1.5 21:15:46 10° WNW 21:17:20 25° NW 21:17:20 25° NW visible
30 Sep -3.4 20:28:21 10° NW 20:31:41 52° NNE 20:31:43 52° NNE visible
01 Oct -2.9 19:40:56 10° NW 19:44:09 39° NNE 19:46:08 19° ENE visible
01 Oct -1.2 21:17:46 10° WNW 21:19:06 21° W 21:19:06 21° W visible
02 Oct -3.7 20:30:15 10° WNW 20:33:34 73° SW 20:33:34 73° SW visible
03 Oct -3.8 19:42:47 10° WNW 19:46:10 74° NNE 19:48:05 24° ESE visible
03 Oct -0.7 21:20:13 10° W 21:21:03 14° W 21:21:03 14° W visible
04 Oct -2.2 20:32:21 10° WNW 20:35:20 29° SW 20:35:39 28° SSW visible
